SDS-1

Satellite information

Favourite Embed

Satellite Type and Status

PAYLOADIN ORBIT

Key statistics

Satellite SDS-1 at a glance.

Uptime

6113

Days in orbit

Revolutions

≈ 14.7

Per day

Orbit

SSO

Sun Synchronous Orbit

Inclination

98.2

Latest

Satellite identification and parameters

Extended collection of information and parameters for SDS-1.

Object identification

Identified? True

Debris? False

Object name: SDS-1

International designator: 2009-002F

Object number (NORAD): 33497

Object ID (CCSDS): 33497

Country: JAPAN (JPN)

Current information (Y/N): Y

RCS size: MEDIUM

Orbital parameters

Period: 97.691 minutes

Inclination: 98.2104 deg

SMA: 7026.337 km

Apoapsis: 649.577 km

Periapsis: 646.827 km

RAAN: 182.9567 deg

Eccentricy: 0.00019567

Argument of periapsis: 17.8301 deg

Mean anomaly: 342.2975 deg

Mean motion: 14.74040014 rev/day

Mean motion (dot): 0.00001345 rev/day2

B* drag term: 0.0002123835 1/REarth

Two-line elements (TLE)

Creation date: Oct. 19, 2025, 2:20 a.m.

Reference frame: TEME

Reference center: EARTH

Epoch: Oct. 18, 2025, 4:14 p.m. UTC

TLE line 0: 0 SDS-1

TLE line 1: 1 33497U 09002F 25291.67700972 .00001345 00000-0 21238-3 0 9996

TLE line 2: 2 33497 98.2104 182.9567 0001957 17.8301 342.2975 14.74040014897979

Live tracking on map

Real-time ground track for satellite SDS-1.

In-orbit conjunctions

A list of the most updated potential collisions computed for object SDS-1.

Target Orbit TCA Probability of collision Miss distance Type
CZ-6A DEB SSO 2025-08-21 16:49:35 0.0003972657 684.0 (m) DEBRIS
CZ-6A DEB SSO 2025-01-06 15:54:20 0.000700747 147.0 (m) DEBRIS
COSMOS 2251 DEB LEO 2024-06-12 21:45:10 0.001810359 62.0 (m) DEBRIS

Associated space launch

Japanese Earth observation satellite. Launched with 7 secondary payloads.

SDS-1 was lifted into orbit during the mission ‘H-IIA 202 | GOSAT’, on board a H-IIA space rocket.

The launch took place on Jan. 23, 2009, 3:54 a.m. from Yoshinobu Launch Complex LP-1.

For more information about the launch, click the button.

Launch to space H-IIA 202 | GOSAT
H-IIA 202 | GOSAT

Agency: N/A

Status: Launch Successful

Launch date: Jan. 23, 2009, 3:54 a.m. UTC

Rocket: H-IIA

Launch pad: Yoshinobu Launch Complex LP-1

Location: Tanegashima Space Center, Japan

...

Latest news about this satellite

There are no fresh news available about this satellite. Check back as we update our databases every day.


Newsletter sign-up

Weekly statistics, charts and insights to help you stay on top of the space industry.